TimeEDT,TemperatureF,Dew PointF,Humidity,Sea Level PressureIn,VisibilityMPH,Wind Direction,Wind SpeedMPH,Gust SpeedMPH,PrecipitationIn,Events,Conditions,WindDirDegrees,DateUTC
12:15 AM,51.8,44.6,76,29.99,10.0,SSE,11.5,25.3,N/A,Rain,Light Rain,150,2013-03-12 04:15:00
12:35 AM,51.8,44.6,76,29.98,10.0,SSE,12.7,28.8,N/A,,Clear,160,2013-03-12 04:35:00
12:55 AM,51.8,44.6,76,29.96,10.0,SSE,11.5,19.6,N/A,Rain,Light Rain,160,2013-03-12 04:55:00
1:15 AM,51.8,44.6,76,29.96,10.0,SSE,13.8,19.6,N/A,Rain,Light Rain,160,2013-03-12 05:15:00
1:55 AM,51.8,44.6,76,29.96,10.0,SSE,11.5,18.4,N/A,Rain,Light Rain,160,2013-03-12 05:55:00
2:15 AM,51.8,44.6,76,29.94,10.0,SSE,9.2,17.3,N/A,Rain,Light Rain,150,2013-03-12 06:15:00
2:35 AM,51.8,44.6,76,29.94,7.0,SSE,11.5,17.3,N/A,Rain,Light Rain,160,2013-03-12 06:35:00
2:55 AM,51.8,46.4,82,29.93,7.0,SSE,15.0,21.9,0.02,Rain,Rain,160,2013-03-12 06:55:00
3:15 AM,50.0,46.4,87,29.94,7.0,South,6.9,-,0.01,Rain,Rain,170,2013-03-12 07:15:00
3:55 AM,51.8,46.4,82,29.92,7.0,SSE,10.4,17.3,0.04,Rain,Light Rain,160,2013-03-12 07:55:00
4:15 AM,51.8,46.4,82,29.91,7.0,South,11.5,19.6,N/A,Rain,Rain,170,2013-03-12 08:15:00
4:55 AM,51.8,46.4,82,29.89,7.0,SSE,13.8,24.2,0.03,Rain,Light Rain,160,2013-03-12 08:55:00
5:15 AM,51.8,46.4,82,29.88,7.0,South,13.8,21.9,0.01,Rain,Light Rain,170,2013-03-12 09:15:00
5:35 AM,51.8,48.2,88,29.88,10.0,SSE,12.7,23.0,0.01,Rain,Light Rain,160,2013-03-12 09:35:00
5:55 AM,51.8,48.2,88,29.88,10.0,South,12.7,20.7,0.01,Rain,Rain,170,2013-03-12 09:55:00
6:15 AM,51.8,48.2,88,29.87,10.0,South,16.1,21.9,0.01,Rain,Light Rain,170,2013-03-12 10:15:00
6:55 AM,51.8,48.2,88,29.86,7.0,South,13.8,23.0,0.01,Rain,Light Rain,170,2013-03-12 10:55:00
7:15 AM,51.8,48.2,88,29.85,7.0,SSE,16.1,25.3,0.01,Rain,Light Rain,160,2013-03-12 11:15:00
7:35 AM,51.8,50.0,94,29.85,7.0,South,18.4,23.0,0.02,Rain,Light Rain,170,2013-03-12 11:35:00
7:55 AM,51.8,50.0,94,29.84,7.0,South,16.1,21.9,0.02,Rain,Light Rain,170,2013-03-12 11:55:00
8:15 AM,53.6,50.0,88,29.84,3.0,SSE,16.1,28.8,0.02,Rain,Heavy Rain,160,2013-03-12 12:15:00
8:35 AM,53.6,50.0,88,29.83,7.0,SSE,20.7,26.5,0.04,Rain,Light Rain,160,2013-03-12 12:35:00
8:55 AM,51.8,50.0,94,29.83,5.0,South,19.6,27.6,0.06,Rain,Rain,180,2013-03-12 12:55:00
9:15 AM,51.8,50.0,94,29.83,5.0,South,12.7,21.9,0.02,Rain,Rain,170,2013-03-12 13:15:00
9:35 AM,53.6,50.0,88,29.83,5.0,SSE,16.1,23.0,0.06,Rain,Rain,160,2013-03-12 13:35:00
9:55 AM,53.6,50.0,88,29.82,3.0,South,17.3,23.0,0.14,Rain,Rain,170,2013-03-12 13:55:00
10:15 AM,53.6,50.0,88,29.81,5.0,SSE,16.1,23.0,0.04,Rain,Rain,160,2013-03-12 14:15:00
10:35 AM,53.6,50.0,88,29.80,4.0,SSE,11.5,17.3,0.12,Rain,Heavy Rain,160,2013-03-12 14:35:00
10:55 AM,53.6,50.0,88,29.78,3.0,SSE,11.5,20.7,0.22,Rain,Heavy Rain,160,2013-03-12 14:55:00
11:15 AM,53.6,51.8,94,29.78,5.0,South,12.7,20.7,0.04,Rain,Rain,170,2013-03-12 15:15:00
11:35 AM,53.6,51.8,94,29.76,4.0,SSE,11.5,19.6,0.11,Rain,Rain,160,2013-03-12 15:35:00
11:55 AM,53.6,51.8,94,29.76,3.0,South,10.4,-,0.23,Rain,Heavy Rain,170,2013-03-12 15:55:00
12:15 PM,53.6,51.8,94,29.75,5.0,South,13.8,21.9,0.05,Rain,Rain,180,2013-03-12 16:15:00
12:35 PM,53.6,51.8,94,29.74,4.0,South,10.4,16.1,0.13,Rain,Heavy Rain,180,2013-03-12 16:35:00
12:55 PM,53.6,51.8,94,29.73,3.0,South,11.5,19.6,0.25,Rain,Heavy Rain,180,2013-03-12 16:55:00
1:15 PM,53.6,51.8,94,29.74,3.0,SW,6.9,-,0.10,Rain,Heavy Rain,230,2013-03-12 17:15:00
1:35 PM,53.6,51.8,94,29.73,3.0,Calm,Calm,-,0.16,Rain,Rain,0,2013-03-12 17:35:00
1:55 PM,53.6,51.8,94,29.72,5.0,Calm,Calm,-,0.19,Rain,Rain,0,2013-03-12 17:55:00
2:15 PM,53.6,53.6,100,29.71,5.0,Calm,Calm,-,0.01,Rain,Light Rain,0,2013-03-12 18:15:00
2:35 PM,55.4,53.6,94,29.71,10.0,SW,5.8,-,0.01,Rain,Light Rain,220,2013-03-12 18:35:00
2:55 PM,51.8,50.0,94,29.71,4.0,WNW,11.5,21.9,0.02,Rain,Light Rain,300,2013-03-12 18:55:00
3:15 PM,51.8,50.0,94,29.72,10.0,WNW,11.5,17.3,N/A,,Overcast,300,2013-03-12 19:15:00
3:35 PM,50.0,48.2,94,29.73,10.0,West,13.8,21.9,N/A,,Overcast,280,2013-03-12 19:35:00
3:55 PM,50.0,48.2,94,29.73,10.0,WNW,11.5,-,N/A,,Overcast,290,2013-03-12 19:55:00
4:15 PM,50.0,46.4,87,29.74,10.0,WNW,10.4,20.7,N/A,,Overcast,300,2013-03-12 20:15:00
4:35 PM,51.8,44.6,76,29.75,10.0,WNW,11.5,-,N/A,,Overcast,290,2013-03-12 20:35:00
4:55 PM,50.0,42.8,76,29.76,10.0,WNW,10.4,18.4,N/A,,Overcast,300,2013-03-12 20:55:00
5:15 PM,48.2,41.0,76,29.78,10.0,NW,15.0,19.6,N/A,,Overcast,310,2013-03-12 21:15:00
5:35 PM,48.2,39.2,71,29.78,10.0,WNW,8.1,-,N/A,,Overcast,290,2013-03-12 21:35:00
5:55 PM,48.2,39.2,71,29.79,10.0,West,9.2,-,N/A,,Overcast,270,2013-03-12 21:55:00
6:15 PM,48.2,37.4,66,29.81,10.0,WNW,9.2,-,N/A,,Overcast,290,2013-03-12 22:15:00
6:35 PM,46.4,37.4,71,29.81,10.0,West,6.9,-,N/A,,Overcast,280,2013-03-12 22:35:00
6:55 PM,46.4,37.4,71,29.82,10.0,WNW,6.9,17.3,N/A,,Overcast,290,2013-03-12 22:55:00
7:15 PM,46.4,35.6,66,29.83,10.0,WNW,10.4,16.1,N/A,,Mostly Cloudy,300,2013-03-12 23:15:00
7:55 PM,44.6,33.8,66,29.85,10.0,West,10.4,17.3,N/A,,Mostly Cloudy,280,2013-03-12 23:55:00
8:15 PM,44.6,33.8,66,29.86,10.0,WNW,9.2,-,N/A,,Overcast,290,2013-03-13 00:15:00
8:35 PM,44.6,33.8,66,29.87,10.0,WNW,9.2,-,N/A,,Overcast,290,2013-03-13 00:35:00
8:55 PM,44.6,33.8,66,29.87,10.0,WNW,6.9,-,N/A,,Overcast,290,2013-03-13 00:55:00
9:15 PM,44.6,32.0,61,29.87,10.0,WNW,5.8,-,N/A,,Overcast,300,2013-03-13 01:15:00
9:55 PM,42.8,32.0,66,29.88,10.0,West,5.8,-,N/A,,Mostly Cloudy,280,2013-03-13 01:55:00
10:15 PM,42.8,32.0,66,29.89,10.0,West,5.8,-,N/A,,Mostly Cloudy,280,2013-03-13 02:15:00
10:35 PM,41.0,32.0,70,29.89,10.0,West,5.8,-,N/A,,Clear,280,2013-03-13 02:35:00
10:55 PM,41.0,32.0,70,29.89,10.0,WNW,6.9,-,N/A,,Clear,290,2013-03-13 02:55:00
11:15 PM,41.0,30.2,65,29.90,10.0,West,5.8,-,N/A,,Clear,280,2013-03-13 03:15:00
11:35 PM,41.0,30.2,65,29.90,10.0,WNW,5.8,-,N/A,,Clear,290,2013-03-13 03:35:00
11:55 PM,39.2,30.2,70,29.90,10.0,WNW,6.9,-,N/A,,Clear,290,2013-03-13 03:55:00